Date,TemperatureHighF,TemperatureAvgF,TemperatureLowF,DewpointHighF,DewpointAvgF,DewpointLowF,HumidityHigh,HumidityAvg,HumidityLow,PressureMaxIn,PressureMinIn,WindSpeedMaxMPH,WindSpeedAvgMPH,GustSpeedMaxMPH,PrecipitationSumIn
2013-1-1,17,16,12,-100,-100,-100,0,0,100,30.08,30.04,30,23,0,0.00
2013-1-2,29,23,14,-100,-100,-100,0,0,100,30.10,30.04,25,22,0,0.00
2013-1-3,29,25,23,-100,-100,-100,0,0,100,30.04,29.98,22,19,0,0.00
2013-1-4,32,26,25,-100,-100,-100,0,0,100,29.92,29.70,26,19,0,0.00
2013-1-5,32,30,27,-100,-100,-100,0,0,100,30.01,29.82,26,22,0,0.00
2013-1-6,27,26,25,-100,-100,-100,0,0,100,29.86,29.84,21,20,0,0.00
2013-1-7,35,34,34,-100,-100,-100,0,0,100,29.82,29.81,21,20,0,0.00
2013-1-8,35,35,34,-100,-100,-100,0,0,100,29.93,29.82,21,18,0,0.00
2013-1-9,37,36,34,-100,-100,-100,0,0,100,30.36,29.78,32,25,0,0.00
2013-1-10,37,37,37,-100,-100,-100,0,0,100,30.38,30.38,8,8,0,0.00
2013-1-12,48,44,41,-100,-100,-100,0,0,100,29.72,29.67,30,30,0,0.00
2013-1-13,27,27,27,-100,-100,-100,0,0,100,29.86,29.86,15,15,0,0.00
2013-1-14,23,23,23,-100,-100,-100,0,0,100,29.88,29.88,31,31,0,0.00
2013-1-15,26,25,25,-100,-100,-100,0,0,100,30.02,29.94,30,27,0,0.00
2013-1-17,10,10,9,-100,-100,-100,0,0,100,30.12,30.10,28,26,0,0.00
2013-1-18,9,9,9,-100,-100,-100,0,0,100,30.16,30.16,20,20,0,0.00
2013-1-19,24,24,24,-100,-100,-100,0,0,100,29.73,29.73,15,15,0,0.00
2013-1-20,11,10,9,-100,-100,-100,0,0,100,29.99,29.99,20,12,0,0.00
2013-1-21,-4,-4,-4,-100,-100,-100,0,0,100,30.04,30.04,20,20,0,0.00
2013-1-23,8,-1,-5,-100,-100,-100,0,0,100,30.42,29.96,28,24,0,0.00